Albany, NY

2:34 PM EDT on October 19, 2019 (GMT -0400)
Albany International

Weather History for KALB - July, 2019

Change the Weather History Date:

Friday, July 19, 2019

  Actual Average Record
Temperature  
Mean Temperature 83 °F 72 °F  
Max Temperature 94 °F 83 °F 97 °F (1904)
Min Temperature 72 °F 62 °F 47 °F (1875)
Degree Days  
Heating Degree Days 0 0  
Month to date heating degree days 0 0  
Since 1 June heating degree days 27 52  
Since 1 July heating degree days 0 0  
Cooling Degree Days 18 7  
Month to date cooling degree days 220 130  
Year to date cooling degree days 370 278  
Since 1 June cooling degree days 348 248  
Growing Degree Days 32 (Base 50)    
Moisture  
Dew Point 69 °F    
Average Humidity 67    
Maximum Humidity 84    
Minimum Humidity 49    
Precipitation  
Precipitation 0.00 in 0.13 in 2.24 in (1966)
Month to date precipitation 1.43 2.52  
Year to date precipitation 22.30 21.09  
Sea Level Pressure  
Sea Level Pressure 29.85 in    
Wind  
Wind Speed 7 mph (South)    
Max Wind Speed 14 mph    
Max Gust Speed 17 mph    
Visibility 10 miles    
Events      
T = Trace of Precipitation, MM = Missing Value Source: NWS Daily Summary

Daily Weather History Graph

Daily Weather History Graph

Search for Another Location

Airport or City:

Astronomy

Jul. 19, 2019 Rise Set
Actual Time 5:33 AM EDT 8:28 PM EDT
Civil Twilight 5:00 AM EDT 9:02 PM EDT
Nautical Twilight 4:17 AM EDT 9:44 PM EDT
Astronomical Twilight 3:27 AM EDT 10:33 PM EDT
Moon 10:22 PM EDT 7:59 AM EDT
Length of Visible Light 16h 01m
Length of Day
14h 54m
Waning Gibbous, 93% of the Moon is Illuminated
Jul 19
Waning Gibbous
Jul 24
Last Quarter
Jul 31
New
Aug 7
First Quarter
Aug 15
Full

Hourly Weather History & Observations

Time (EDT) Temp. Heat Index Dew Point Humidity Pressure Visibility Wind Dir Wind Speed Gust Speed Precip Events Conditions
12:01 AM 71.1 °F - 64.0 °F 78% 29.91 in 10.0 mi South 4.6 mph - N/A   Mostly Cloudy
12:51 AM 72.0 °F - 64.9 °F 78% 29.90 in 10.0 mi SSE 4.6 mph - N/A   Overcast
1:51 AM 72.0 °F - 64.0 °F 76% 29.89 in 10.0 mi South 5.8 mph - N/A   Overcast
2:24 AM 72.0 °F - 64.0 °F 76% 29.90 in 10.0 mi South 6.9 mph - N/A   Overcast
2:36 AM 72.0 °F - 64.0 °F 76% 29.90 in 10.0 mi South 4.6 mph - N/A   Overcast
2:51 AM 72.0 °F - 64.0 °F 76% 29.89 in 10.0 mi South 5.8 mph - N/A   Overcast
3:14 AM 72.0 °F - 64.0 °F 76% 29.90 in 10.0 mi South 5.8 mph - N/A   Overcast
3:51 AM 72.0 °F - 64.9 °F 78% 29.88 in 10.0 mi SSE 6.9 mph - N/A   Overcast
4:51 AM 72.0 °F - 64.9 °F 78% 29.89 in 10.0 mi SSE 5.8 mph - N/A   Overcast
5:51 AM 72.0 °F - 64.9 °F 78% 29.88 in 10.0 mi South 8.1 mph - N/A   Overcast
6:51 AM 72.0 °F - 66.0 °F 81% 29.88 in 10.0 mi South 8.1 mph - N/A   Overcast
7:51 AM 73.0 °F - 66.0 °F 79% 29.88 in 10.0 mi South 10.4 mph - N/A   Mostly Cloudy
8:21 AM 73.0 °F - 66.9 °F 81% 29.88 in 10.0 mi SSE 9.2 mph - N/A   Mostly Cloudy
8:34 AM 73.9 °F - 66.9 °F 79% 29.88 in 10.0 mi South 10.4 mph - N/A   Mostly Cloudy
8:51 AM 73.9 °F - 66.9 °F 79% 29.88 in 10.0 mi SSE 9.2 mph - N/A   Mostly Cloudy
9:18 AM 73.9 °F - 66.9 °F 79% 29.88 in 10.0 mi South 9.2 mph - N/A   Overcast
9:51 AM 75.0 °F - 68.0 °F 79% 29.87 in 10.0 mi South 9.2 mph - N/A   Overcast
10:51 AM 75.9 °F - 68.0 °F 76% 29.86 in 10.0 mi South 8.1 mph - N/A   Mostly Cloudy
11:12 AM 78.1 °F - 69.1 °F 74% 29.86 in 10.0 mi SSE 8.1 mph - N/A   Scattered Clouds
11:51 AM 81.0 °F 84.4 °F 70.0 °F 69% 29.86 in 10.0 mi South 8.1 mph - N/A   Scattered Clouds
12:51 PM 84.0 °F 89.6 °F 72.0 °F 67% 29.84 in 10.0 mi SSE 6.9 mph - N/A   Scattered Clouds
1:51 PM 88.0 °F 96.5 °F 73.9 °F 63% 29.81 in 10.0 mi SSE 6.9 mph - N/A   Scattered Clouds
2:51 PM 90.0 °F 99.0 °F 73.9 °F 59% 29.81 in 10.0 mi SSW 6.9 mph - N/A   Scattered Clouds
3:51 PM 91.9 °F 99.5 °F 72.0 °F 52% 29.80 in 10.0 mi West 8.1 mph - N/A   Mostly Cloudy
4:51 PM 93.9 °F 102.1 °F 72.0 °F 49% 29.79 in 10.0 mi WSW 10.4 mph - N/A   Scattered Clouds
5:51 PM 91.0 °F 98.2 °F 72.0 °F 53% 29.78 in 10.0 mi WSW 9.2 mph - N/A   Mostly Cloudy
6:51 PM 89.1 °F 97.0 °F 73.0 °F 59% 29.78 in 10.0 mi WSW 4.6 mph - N/A   Mostly Cloudy
7:51 PM 88.0 °F 96.5 °F 73.9 °F 63% 29.79 in 10.0 mi SW 5.8 mph - N/A   Mostly Cloudy
8:51 PM 84.9 °F 91.4 °F 73.0 °F 67% 29.80 in 10.0 mi West 5.8 mph - N/A   Mostly Cloudy
9:51 PM 84.9 °F 91.4 °F 73.0 °F 67% 29.81 in 10.0 mi WSW 5.8 mph - N/A   Mostly Cloudy
10:51 PM 82.9 °F 88.8 °F 73.0 °F 72% 29.82 in 10.0 mi WSW 4.6 mph - N/A   Mostly Cloudy
11:51 PM 82.0 °F 86.7 °F 72.0 °F 71% 29.82 in 10.0 mi SSW 6.9 mph - N/A   Mostly Cloudy